Year,Month,Day,Hour,Minute,Value (Times are PST for windgust in km/hr)
2015,08,30,00,00,4.80
2015,08,30,00,01,4.80
2015,08,30,00,02,11.30
2015,08,30,00,03,4.80
2015,08,30,00,04,3.20
2015,08,30,00,05,6.40
2015,08,30,00,06,6.40
2015,08,30,00,07,4.80
2015,08,30,00,08,6.40
2015,08,30,00,13,4.80
2015,08,30,00,14,8.10
2015,08,30,00,15,1.60
2015,08,30,00,18,1.60
2015,08,30,00,19,1.60
2015,08,30,00,20,6.40
2015,08,30,00,22,4.80
2015,08,30,00,23,1.60
2015,08,30,00,24,6.40
2015,08,30,00,25,3.20
2015,08,30,00,26,1.60
2015,08,30,00,27,1.60
2015,08,30,00,29,1.60
2015,08,30,00,31,1.60
2015,08,30,00,35,1.60
2015,08,30,00,37,1.60
2015,08,30,00,38,3.20
2015,08,30,00,40,3.20
2015,08,30,00,42,1.60
2015,08,30,00,45,1.60
2015,08,30,00,46,4.80
2015,08,30,00,47,8.10
2015,08,30,00,48,3.20
2015,08,30,00,49,1.60
2015,08,30,00,50,4.80
2015,08,30,00,51,1.60
2015,08,30,00,52,3.20
2015,08,30,00,57,1.60
2015,08,30,01,06,1.60
2015,08,30,01,09,1.60
2015,08,30,01,12,3.20
2015,08,30,01,13,1.60
2015,08,30,01,17,1.60
2015,08,30,01,19,1.60
2015,08,30,01,25,1.60
2015,08,30,01,26,1.60
2015,08,30,01,33,4.80
2015,08,30,01,43,1.60
2015,08,30,01,53,1.60
2015,08,30,01,54,3.20
2015,08,30,01,59,1.60
2015,08,30,02,09,1.60
2015,08,30,02,19,1.60
2015,08,30,02,20,3.20
2015,08,30,02,23,1.60
2015,08,30,02,27,1.60
2015,08,30,02,33,1.60
2015,08,30,02,41,1.60
2015,08,30,02,44,1.60
2015,08,30,02,45,3.20
2015,08,30,02,50,1.60
2015,08,30,02,51,1.60
2015,08,30,02,52,1.60
2015,08,30,03,02,1.60
2015,08,30,03,03,1.60
2015,08,30,03,04,3.20
2015,08,30,03,10,1.60
2015,08,30,03,11,3.20
2015,08,30,03,12,3.20
2015,08,30,03,22,1.60
2015,08,30,03,24,1.60
2015,08,30,03,25,3.20
2015,08,30,03,26,1.60
2015,08,30,03,30,1.60
2015,08,30,03,36,3.20
2015,08,30,03,37,3.20
2015,08,30,04,04,1.60
2015,08,30,04,08,3.20
2015,08,30,04,09,4.80
2015,08,30,04,10,4.80
2015,08,30,04,11,8.10
2015,08,30,04,12,4.80
2015,08,30,04,13,1.60
2015,08,30,04,16,9.60
2015,08,30,04,17,4.80
2015,08,30,04,18,6.40
2015,08,30,04,19,9.60
2015,08,30,04,20,4.80
2015,08,30,04,22,1.60
2015,08,30,04,23,6.40
2015,08,30,04,24,3.20
2015,08,30,04,25,4.80
2015,08,30,04,26,4.80
2015,08,30,04,27,3.20
2015,08,30,04,28,4.80
2015,08,30,04,29,3.20
2015,08,30,04,32,1.60
2015,08,30,04,34,1.60
2015,08,30,04,41,1.60
2015,08,30,04,42,1.60
2015,08,30,04,43,1.60
2015,08,30,04,44,1.60
2015,08,30,05,18,1.60
2015,08,30,05,19,3.20
2015,08,30,05,20,1.60
2015,08,30,05,27,1.60
2015,08,30,05,38,1.60
2015,08,30,06,06,1.60
2015,08,30,06,07,1.60
2015,08,30,06,08,1.60
2015,08,30,06,27,1.60
2015,08,30,06,30,1.60
2015,08,30,06,31,1.60
2015,08,30,06,32,1.60
2015,08,30,06,43,1.60
2015,08,30,06,47,1.60
2015,08,30,06,58,1.60
2015,08,30,07,13,3.20
2015,08,30,07,14,3.20
2015,08,30,07,15,3.20
2015,08,30,07,18,4.80
2015,08,30,07,19,3.20
2015,08,30,07,20,3.20
2015,08,30,07,21,3.20
2015,08,30,07,22,4.80
2015,08,30,07,23,4.80
2015,08,30,07,24,4.80
2015,08,30,07,25,4.80
2015,08,30,07,27,1.60
2015,08,30,07,29,1.60
2015,08,30,07,30,6.40
2015,08,30,07,34,6.40
2015,08,30,07,35,1.60
2015,08,30,07,36,6.40
2015,08,30,07,37,3.20
2015,08,30,07,38,4.80
2015,08,30,07,39,4.80
2015,08,30,07,40,3.20
2015,08,30,07,45,1.60
2015,08,30,07,48,1.60
2015,08,30,07,54,1.60
2015,08,30,07,56,6.40
2015,08,30,07,57,4.80
2015,08,30,07,58,9.60
2015,08,30,07,59,9.60
2015,08,30,08,00,8.10
2015,08,30,08,01,6.40
2015,08,30,08,03,8.10
2015,08,30,08,04,4.80
2015,08,30,08,05,6.40
2015,08,30,08,06,3.20
2015,08,30,08,09,1.60
2015,08,30,08,10,4.80
2015,08,30,08,11,6.40
2015,08,30,08,13,11.30
2015,08,30,08,14,6.40
2015,08,30,08,15,4.80
2015,08,30,08,16,6.40
2015,08,30,08,17,11.30
2015,08,30,08,18,8.10
2015,08,30,08,19,11.30
2015,08,30,08,20,4.80
2015,08,30,08,21,9.60
2015,08,30,08,22,11.30
2015,08,30,08,23,4.80
2015,08,30,08,24,3.20
2015,08,30,08,25,8.10
2015,08,30,08,26,4.80
2015,08,30,08,27,6.40
2015,08,30,08,28,4.80
2015,08,30,08,29,8.10
2015,08,30,08,30,3.20
2015,08,30,08,31,1.60
2015,08,30,08,32,8.10
2015,08,30,08,33,3.20
2015,08,30,08,34,8.10
2015,08,30,08,35,8.10
2015,08,30,08,36,6.40
2015,08,30,08,39,1.60
2015,08,30,08,40,3.20
2015,08,30,08,41,3.20
2015,08,30,08,44,1.60
2015,08,30,08,46,1.60
2015,08,30,08,48,1.60
2015,08,30,08,49,1.60
2015,08,30,08,50,1.60
2015,08,30,08,52,1.60
2015,08,30,08,54,3.20
2015,08,30,08,57,1.60
2015,08,30,08,58,6.40
2015,08,30,08,59,1.60
2015,08,30,09,00,1.60
2015,08,30,09,01,1.60
2015,08,30,09,02,4.80
2015,08,30,09,03,8.10
2015,08,30,09,04,6.40
2015,08,30,09,05,11.30
2015,08,30,09,06,6.40
2015,08,30,09,07,3.20
2015,08,30,09,08,4.80
2015,08,30,09,09,4.80
2015,08,30,09,10,3.20
2015,08,30,09,11,3.20
2015,08,30,09,12,1.60
2015,08,30,09,13,3.20
2015,08,30,09,14,4.80
2015,08,30,09,15,4.80
2015,08,30,09,16,1.60
2015,08,30,09,17,4.80
2015,08,30,09,18,3.20
2015,08,30,09,19,6.40
2015,08,30,09,20,1.60
2015,08,30,09,21,11.30
2015,08,30,09,22,11.30
2015,08,30,09,23,12.90
2015,08,30,09,24,14.50
2015,08,30,09,25,8.10
2015,08,30,09,26,11.30
2015,08,30,09,27,14.50
2015,08,30,09,28,11.30
2015,08,30,09,29,8.10
2015,08,30,09,30,3.20
2015,08,30,09,31,8.10
2015,08,30,09,32,9.60
2015,08,30,09,33,11.30
2015,08,30,09,34,11.30
2015,08,30,09,35,6.40
2015,08,30,09,36,14.50
2015,08,30,09,37,12.90
2015,08,30,09,38,8.10
2015,08,30,09,39,9.60
2015,08,30,09,40,6.40
2015,08,30,09,41,11.30
2015,08,30,09,42,9.60
2015,08,30,09,43,12.90
2015,08,30,09,44,6.40
2015,08,30,09,45,8.10
2015,08,30,09,46,8.10
2015,08,30,09,47,11.30
2015,08,30,09,48,12.90
2015,08,30,09,49,11.30
2015,08,30,09,50,16.10
2015,08,30,09,51,8.10
2015,08,30,09,52,8.10
2015,08,30,09,53,16.10
2015,08,30,09,54,8.10
2015,08,30,09,55,20.90
2015,08,30,09,56,19.30
2015,08,30,09,57,9.60
2015,08,30,09,58,14.50
2015,08,30,09,59,9.60
2015,08,30,10,00,16.10
2015,08,30,10,01,9.60
2015,08,30,10,02,19.30
2015,08,30,10,03,14.50
2015,08,30,10,04,16.10
2015,08,30,10,05,9.60
2015,08,30,10,06,17.70
2015,08,30,10,07,20.90
2015,08,30,10,08,17.70
2015,08,30,10,09,20.90
2015,08,30,10,10,16.10
2015,08,30,10,11,16.10
2015,08,30,10,12,14.50
2015,08,30,10,13,8.10
2015,08,30,10,14,4.80
2015,08,30,10,15,6.40
2015,08,30,10,16,9.60
2015,08,30,10,17,6.40
2015,08,30,10,18,17.70
2015,08,30,10,19,9.60
2015,08,30,10,20,9.60
2015,08,30,10,21,6.40
2015,08,30,10,22,6.40
2015,08,30,10,23,11.30
2015,08,30,10,24,17.70
2015,08,30,10,25,17.70
2015,08,30,10,26,16.10
2015,08,30,10,27,14.50
2015,08,30,10,28,19.30
2015,08,30,10,29,11.30
2015,08,30,10,30,9.60
2015,08,30,10,31,14.50
2015,08,30,10,32,9.60
2015,08,30,10,33,22.50
2015,08,30,10,34,20.90
2015,08,30,10,35,24.20
2015,08,30,10,36,17.70
2015,08,30,10,37,12.90
2015,08,30,10,38,29.00
2015,08,30,10,39,25.70
2015,08,30,10,40,24.20
2015,08,30,10,41,20.90
2015,08,30,10,42,24.20
2015,08,30,10,43,14.50
2015,08,30,10,44,14.50
2015,08,30,10,45,4.80
2015,08,30,10,46,17.70
2015,08,30,10,47,16.10
2015,08,30,10,48,27.40
2015,08,30,10,49,17.70
2015,08,30,10,50,16.10
2015,08,30,10,51,16.10
2015,08,30,10,52,16.10
2015,08,30,10,53,19.30
2015,08,30,10,54,24.20
2015,08,30,10,55,8.10
2015,08,30,10,56,17.70
2015,08,30,10,57,11.30
2015,08,30,10,58,6.40
2015,08,30,10,59,6.40
2015,08,30,11,00,11.30
2015,08,30,11,01,9.60
2015,08,30,11,02,6.40
2015,08,30,11,03,17.70
2015,08,30,11,04,19.30
2015,08,30,11,05,19.30
2015,08,30,11,06,16.10
2015,08,30,11,07,9.60
2015,08,30,11,08,20.90
2015,08,30,11,09,14.50
2015,08,30,11,10,17.70
2015,08,30,11,11,17.70
2015,08,30,11,12,14.50
2015,08,30,11,13,9.60
2015,08,30,11,14,9.60
2015,08,30,11,15,11.30
2015,08,30,11,16,11.30
2015,08,30,11,17,6.40
2015,08,30,11,18,8.10
2015,08,30,11,19,9.60
2015,08,30,11,20,14.50
2015,08,30,11,21,17.70
2015,08,30,11,22,17.70
2015,08,30,11,23,11.30
2015,08,30,11,24,14.50
2015,08,30,11,25,4.80
2015,08,30,11,26,9.60
2015,08,30,11,27,6.40
2015,08,30,11,28,9.60
2015,08,30,11,29,3.20
2015,08,30,11,31,6.40
2015,08,30,11,32,8.10
2015,08,30,11,33,8.10
2015,08,30,11,34,1.60
2015,08,30,11,35,4.80
2015,08,30,11,36,8.10
2015,08,30,11,37,11.30
2015,08,30,11,38,6.40
2015,08,30,11,39,6.40
2015,08,30,11,40,8.10
2015,08,30,11,41,1.60
2015,08,30,11,42,14.50
2015,08,30,11,43,19.30
2015,08,30,11,44,12.90
2015,08,30,11,45,12.90
2015,08,30,11,46,22.50
2015,08,30,11,47,22.50
2015,08,30,11,48,16.10
2015,08,30,11,49,17.70
2015,08,30,11,50,27.40
2015,08,30,11,51,14.50
2015,08,30,11,52,17.70
2015,08,30,11,53,14.50
2015,08,30,11,54,8.10
2015,08,30,11,55,16.10
2015,08,30,11,56,14.50
2015,08,30,11,57,14.50
2015,08,30,11,58,17.70
2015,08,30,11,59,20.90
2015,08,30,12,00,14.50
2015,08,30,12,01,17.70
2015,08,30,12,02,14.50
2015,08,30,12,03,22.50
2015,08,30,12,04,19.30
2015,08,30,12,05,19.30
2015,08,30,12,06,16.10
2015,08,30,12,07,24.20
2015,08,30,12,08,20.90
2015,08,30,12,09,14.50
2015,08,30,12,10,1.60
2015,08,30,12,11,25.70
2015,08,30,12,12,11.30
2015,08,30,12,13,9.60
2015,08,30,12,14,11.30
2015,08,30,12,15,14.50
2015,08,30,12,16,8.10
2015,08,30,12,17,6.40
2015,08,30,12,18,11.30
2015,08,30,12,19,1.60
2015,08,30,12,21,6.40
2015,08,30,12,22,6.40
2015,08,30,12,23,9.60
2015,08,30,12,24,9.60
2015,08,30,12,25,9.60
2015,08,30,12,26,16.10
2015,08,30,12,27,16.10
2015,08,30,12,28,20.90
2015,08,30,12,29,24.20
2015,08,30,12,30,12.90
2015,08,30,12,31,11.30
2015,08,30,12,32,1.60
2015,08,30,12,33,4.80
2015,08,30,12,34,11.30
2015,08,30,12,35,9.60
2015,08,30,12,36,16.10
2015,08,30,12,37,19.30
2015,08,30,12,38,11.30
2015,08,30,12,39,19.30
2015,08,30,12,40,20.90
2015,08,30,12,41,8.10
2015,08,30,12,42,19.30
2015,08,30,12,43,14.50
2015,08,30,12,44,16.10
2015,08,30,12,45,20.90
2015,08,30,12,46,17.70
2015,08,30,12,47,12.90
2015,08,30,12,48,20.90
2015,08,30,12,49,9.60
2015,08,30,12,50,17.70
2015,08,30,12,51,17.70
2015,08,30,12,52,16.10
2015,08,30,12,53,16.10
2015,08,30,12,54,12.90
2015,08,30,12,55,9.60
2015,08,30,12,56,6.40
2015,08,30,12,57,12.90
2015,08,30,12,58,25.70
2015,08,30,12,59,22.50
2015,08,30,13,00,4.80
2015,08,30,13,01,9.60
2015,08,30,13,02,14.50
2015,08,30,13,03,22.50
2015,08,30,13,04,20.90
2015,08,30,13,05,20.90
2015,08,30,13,06,12.90
2015,08,30,13,07,17.70
2015,08,30,13,08,14.50
2015,08,30,13,09,17.70
2015,08,30,13,10,20.90
2015,08,30,13,11,20.90
2015,08,30,13,12,17.70
2015,08,30,13,13,24.20
2015,08,30,13,14,9.60
2015,08,30,13,15,9.60
2015,08,30,13,16,8.10
2015,08,30,13,17,17.70
2015,08,30,13,18,17.70
2015,08,30,13,19,17.70
2015,08,30,13,20,29.00
2015,08,30,13,21,19.30
2015,08,30,13,22,22.50
2015,08,30,13,23,29.00
2015,08,30,13,24,19.30
2015,08,30,13,25,20.90
2015,08,30,13,26,24.20
2015,08,30,13,27,16.10
2015,08,30,13,28,9.60
2015,08,30,13,29,14.50
2015,08,30,13,30,14.50
2015,08,30,13,31,8.10
2015,08,30,13,32,17.70
2015,08,30,13,33,20.90
2015,08,30,13,34,24.20
2015,08,30,13,35,4.80
2015,08,30,13,36,19.30
2015,08,30,13,37,17.70
2015,08,30,13,38,6.40
2015,08,30,13,39,29.00
2015,08,30,13,40,19.30
2015,08,30,13,41,9.60
2015,08,30,13,42,14.50
2015,08,30,13,43,8.10
2015,08,30,13,44,16.10
2015,08,30,13,45,16.10
2015,08,30,13,46,6.40
2015,08,30,13,47,20.90
2015,08,30,13,48,20.90
2015,08,30,13,49,17.70
2015,08,30,13,50,14.50
2015,08,30,13,51,19.30
2015,08,30,13,52,19.30
2015,08,30,13,53,11.30
2015,08,30,13,54,11.30
2015,08,30,13,55,9.60
2015,08,30,13,56,19.30
2015,08,30,13,57,27.40
2015,08,30,13,58,22.50
2015,08,30,13,59,30.60
2015,08,30,14,00,22.50
2015,08,30,14,01,20.90
2015,08,30,14,02,11.30
2015,08,30,14,03,17.70
2015,08,30,14,04,14.50
2015,08,30,14,05,27.40
2015,08,30,14,06,14.50
2015,08,30,14,07,25.70
2015,08,30,14,08,24.20
2015,08,30,14,09,17.70
2015,08,30,14,10,17.70
2015,08,30,14,11,24.20
2015,08,30,14,12,19.30
2015,08,30,14,13,22.50
2015,08,30,14,14,20.90
2015,08,30,14,15,16.10
2015,08,30,14,16,12.90
2015,08,30,14,17,16.10
2015,08,30,14,18,27.40
2015,08,30,14,19,17.70
2015,08,30,14,20,16.10
2015,08,30,14,21,17.70
2015,08,30,14,22,16.10
2015,08,30,14,23,16.10
2015,08,30,14,24,22.50
2015,08,30,14,25,16.10
2015,08,30,14,26,1.60
2015,08,30,14,27,8.10
2015,08,30,14,28,16.10
2015,08,30,14,29,11.30
2015,08,30,14,30,9.60
2015,08,30,14,31,16.10
2015,08,30,14,32,14.50
2015,08,30,14,33,8.10
2015,08,30,14,34,8.10
2015,08,30,14,35,20.90
2015,08,30,14,36,8.10
2015,08,30,14,37,1.60
2015,08,30,14,38,12.90
2015,08,30,14,39,16.10
2015,08,30,14,40,14.50
2015,08,30,14,41,19.30
2015,08,30,14,42,29.00
2015,08,30,14,43,16.10
2015,08,30,14,44,17.70
2015,08,30,14,45,19.30
2015,08,30,14,46,14.50
2015,08,30,14,47,19.30
2015,08,30,14,48,14.50
2015,08,30,14,49,17.70
2015,08,30,14,50,8.10
2015,08,30,14,51,4.80
2015,08,30,14,52,9.60
2015,08,30,14,53,8.10
2015,08,30,14,54,19.30
2015,08,30,14,55,17.70
2015,08,30,14,56,17.70
2015,08,30,14,57,17.70
2015,08,30,14,58,29.00
2015,08,30,14,59,20.90
2015,08,30,15,00,17.70
2015,08,30,15,01,25.70
2015,08,30,15,02,19.30
2015,08,30,15,03,30.60
2015,08,30,15,04,12.90
2015,08,30,15,05,9.60
2015,08,30,15,06,6.40
2015,08,30,15,07,8.10
2015,08,30,15,08,11.30
2015,08,30,15,09,20.90
2015,08,30,15,10,16.10
2015,08,30,15,11,25.70
2015,08,30,15,12,20.90
2015,08,30,15,13,14.50
2015,08,30,15,14,14.50
2015,08,30,15,15,24.20
2015,08,30,15,16,20.90
2015,08,30,15,17,16.10
2015,08,30,15,18,19.30
2015,08,30,15,19,17.70
2015,08,30,15,20,22.50
2015,08,30,15,21,11.30
2015,08,30,15,22,20.90
2015,08,30,15,23,17.70
2015,08,30,15,24,9.60
2015,08,30,15,25,20.90
2015,08,30,15,26,16.10
2015,08,30,15,27,24.20
2015,08,30,15,28,24.20
2015,08,30,15,29,12.90
2015,08,30,15,30,9.60
2015,08,30,15,31,9.60
2015,08,30,15,32,14.50
2015,08,30,15,33,14.50
2015,08,30,15,34,25.70
2015,08,30,15,35,24.20
2015,08,30,15,36,19.30
2015,08,30,15,37,25.70
2015,08,30,15,38,16.10
2015,08,30,15,39,14.50
2015,08,30,15,40,20.90
2015,08,30,15,41,29.00
2015,08,30,15,42,29.00
2015,08,30,15,43,27.40
2015,08,30,15,44,27.40
2015,08,30,15,45,17.70
2015,08,30,15,46,24.20
2015,08,30,15,47,19.30
2015,08,30,15,48,17.70
2015,08,30,15,49,4.80
2015,08,30,15,50,14.50
2015,08,30,15,51,20.90
2015,08,30,15,52,11.30
2015,08,30,15,53,6.40
2015,08,30,15,54,8.10
2015,08,30,15,55,20.90
2015,08,30,15,56,24.20
2015,08,30,15,57,19.30
2015,08,30,15,58,30.60
2015,08,30,15,59,19.30
2015,08,30,16,00,33.80
2015,08,30,16,01,20.90
2015,08,30,16,02,14.50
2015,08,30,16,03,30.60
2015,08,30,16,04,22.50
2015,08,30,16,05,25.70
2015,08,30,16,06,22.50
2015,08,30,16,07,19.30
2015,08,30,16,08,16.10
2015,08,30,16,09,14.50
2015,08,30,16,10,14.50
2015,08,30,16,11,11.30
2015,08,30,16,12,12.90
2015,08,30,16,13,9.60
2015,08,30,16,14,16.10
2015,08,30,16,15,16.10
2015,08,30,16,16,17.70
2015,08,30,16,17,25.70
2015,08,30,16,18,25.70
2015,08,30,16,19,29.00
2015,08,30,16,20,11.30
2015,08,30,16,21,19.30
2015,08,30,16,22,16.10
2015,08,30,16,23,19.30
2015,08,30,16,24,11.30
2015,08,30,16,25,17.70
2015,08,30,16,26,16.10
2015,08,30,16,27,22.50
2015,08,30,16,28,27.40
2015,08,30,16,29,24.20
2015,08,30,16,30,20.90
2015,08,30,16,31,17.70
2015,08,30,16,32,25.70
2015,08,30,16,33,20.90
2015,08,30,16,34,19.30
2015,08,30,16,36,8.10
2015,08,30,16,37,16.10
2015,08,30,16,38,19.30
2015,08,30,16,39,16.10
2015,08,30,16,40,17.70
2015,08,30,16,41,14.50
2015,08,30,16,42,22.50
2015,08,30,16,43,8.10
2015,08,30,16,44,6.40
2015,08,30,16,45,8.10
2015,08,30,16,46,6.40
2015,08,30,16,47,9.60
2015,08,30,16,48,17.70
2015,08,30,16,49,8.10
2015,08,30,16,50,16.10
2015,08,30,16,51,8.10
2015,08,30,16,52,24.20
2015,08,30,16,53,24.20
2015,08,30,16,54,14.50
2015,08,30,16,55,19.30
2015,08,30,16,56,14.50
2015,08,30,16,57,8.10
2015,08,30,16,58,1.60
2015,08,30,16,59,1.60
2015,08,30,17,00,8.10
2015,08,30,17,01,11.30
2015,08,30,17,02,11.30
2015,08,30,17,03,9.60
2015,08,30,17,04,19.30
2015,08,30,17,05,24.20
2015,08,30,17,06,11.30
2015,08,30,17,07,17.70
2015,08,30,17,08,12.90
2015,08,30,17,09,32.20
2015,08,30,17,10,32.20
2015,08,30,17,11,19.30
2015,08,30,17,12,17.70
2015,08,30,17,13,20.90
2015,08,30,17,14,9.60
2015,08,30,17,16,8.10
2015,08,30,17,17,8.10
2015,08,30,17,18,3.20
2015,08,30,17,19,9.60
2015,08,30,17,20,11.30
2015,08,30,17,21,19.30
2015,08,30,17,22,14.50
2015,08,30,17,23,9.60
2015,08,30,17,24,9.60
2015,08,30,17,25,11.30
2015,08,30,17,26,6.40
2015,08,30,17,27,17.70
2015,08,30,17,28,19.30
2015,08,30,17,29,16.10
2015,08,30,17,30,16.10
2015,08,30,17,31,16.10
2015,08,30,17,32,17.70
2015,08,30,17,33,17.70
2015,08,30,17,34,16.10
2015,08,30,17,35,8.10
2015,08,30,17,36,14.50
2015,08,30,17,37,9.60
2015,08,30,17,38,17.70
2015,08,30,17,39,9.60
2015,08,30,17,40,8.10
2015,08,30,17,41,11.30
2015,08,30,17,42,16.10
2015,08,30,17,43,12.90
2015,08,30,17,44,17.70
2015,08,30,17,45,8.10
2015,08,30,17,46,24.20
2015,08,30,17,47,32.20
2015,08,30,17,48,19.30
2015,08,30,17,49,17.70
2015,08,30,17,50,1.60
2015,08,30,17,51,6.40
2015,08,30,17,52,1.60
2015,08,30,17,53,8.10
2015,08,30,17,54,9.60
2015,08,30,17,55,8.10
2015,08,30,17,56,6.40
2015,08,30,17,57,16.10
2015,08,30,17,58,3.20
2015,08,30,17,59,8.10
2015,08,30,18,00,11.30
2015,08,30,18,01,16.10
2015,08,30,18,02,8.10
2015,08,30,18,03,14.50
2015,08,30,18,04,11.30
2015,08,30,18,05,8.10
2015,08,30,18,06,14.50
2015,08,30,18,07,11.30
2015,08,30,18,08,11.30
2015,08,30,18,09,8.10
2015,08,30,18,10,1.60
2015,08,30,18,11,1.60
2015,08,30,18,13,1.60
2015,08,30,18,14,1.60
2015,08,30,18,16,9.60
2015,08,30,18,17,6.40
2015,08,30,18,19,8.10
2015,08,30,18,20,11.30
2015,08,30,18,21,3.20
2015,08,30,18,22,1.60
2015,08,30,18,24,1.60
2015,08,30,18,25,1.60
2015,08,30,18,26,3.20
2015,08,30,18,27,1.60
2015,08,30,18,28,3.20
2015,08,30,18,29,3.20
2015,08,30,18,30,1.60
2015,08,30,18,32,1.60
2015,08,30,18,33,4.80
2015,08,30,18,34,4.80
2015,08,30,18,35,1.60
2015,08,30,18,38,1.60
2015,08,30,18,39,1.60
2015,08,30,18,43,3.20
2015,08,30,18,44,4.80
2015,08,30,18,45,9.60
2015,08,30,18,46,8.10
2015,08,30,18,48,6.40
2015,08,30,18,49,14.50
2015,08,30,18,50,12.90
2015,08,30,18,51,8.10
2015,08,30,18,52,6.40
2015,08,30,18,53,6.40
2015,08,30,18,54,8.10
2015,08,30,18,55,9.60
2015,08,30,18,56,11.30
2015,08,30,18,57,14.50
2015,08,30,18,58,11.30
2015,08,30,18,59,9.60
2015,08,30,19,00,9.60
2015,08,30,19,01,9.60
2015,08,30,19,02,4.80
2015,08,30,19,03,8.10
2015,08,30,19,04,17.70
2015,08,30,19,05,17.70
2015,08,30,19,06,4.80
2015,08,30,19,07,4.80
2015,08,30,19,08,11.30
2015,08,30,19,09,11.30
2015,08,30,19,10,9.60
2015,08,30,19,12,1.60
2015,08,30,19,13,4.80
2015,08,30,19,14,9.60
2015,08,30,19,15,14.50
2015,08,30,19,16,14.50
2015,08,30,19,17,9.60
2015,08,30,19,18,6.40
2015,08,30,19,19,6.40
2015,08,30,19,20,4.80
2015,08,30,19,21,14.50
2015,08,30,19,22,20.90
2015,08,30,19,23,25.70
2015,08,30,19,24,14.50
2015,08,30,19,25,8.10
2015,08,30,19,26,6.40
2015,08,30,19,27,8.10
2015,08,30,19,28,6.40
2015,08,30,19,29,8.10
2015,08,30,19,30,12.90
2015,08,30,19,31,4.80
2015,08,30,19,32,1.60
2015,08,30,19,33,4.80
2015,08,30,19,34,4.80
2015,08,30,19,35,1.60
2015,08,30,19,36,6.40
2015,08,30,19,37,8.10
2015,08,30,19,38,8.10
2015,08,30,19,39,6.40
2015,08,30,19,40,4.80
2015,08,30,19,41,6.40
2015,08,30,19,42,8.10
2015,08,30,19,43,11.30
2015,08,30,19,44,8.10
2015,08,30,19,45,4.80
2015,08,30,19,46,8.10
2015,08,30,19,47,22.50
2015,08,30,19,48,11.30
2015,08,30,19,49,14.50
2015,08,30,19,50,9.60
2015,08,30,19,51,9.60
2015,08,30,19,52,9.60
2015,08,30,19,53,11.30
2015,08,30,19,54,11.30
2015,08,30,19,55,24.20
2015,08,30,19,56,19.30
2015,08,30,19,57,16.10
2015,08,30,19,58,16.10
2015,08,30,19,59,9.60
2015,08,30,20,00,11.30
2015,08,30,20,01,11.30
2015,08,30,20,02,11.30
2015,08,30,20,03,11.30
2015,08,30,20,04,8.10
2015,08,30,20,05,12.90
2015,08,30,20,06,17.70
2015,08,30,20,07,14.50
2015,08,30,20,08,16.10
2015,08,30,20,09,24.20
2015,08,30,20,10,30.60
2015,08,30,20,11,25.70
2015,08,30,20,12,12.90
2015,08,30,20,13,11.30
2015,08,30,20,14,14.50
2015,08,30,20,15,17.70
2015,08,30,20,16,19.30
2015,08,30,20,17,19.30
2015,08,30,20,18,19.30
2015,08,30,20,19,14.50
2015,08,30,20,20,19.30
2015,08,30,20,21,17.70
2015,08,30,20,22,9.60
2015,08,30,20,23,24.20
2015,08,30,20,24,24.20
2015,08,30,20,25,27.40
2015,08,30,20,26,20.90
2015,08,30,20,27,16.10
2015,08,30,20,28,16.10
2015,08,30,20,29,11.30
2015,08,30,20,30,9.60
2015,08,30,20,31,20.90
2015,08,30,20,32,29.00
2015,08,30,20,33,11.30
2015,08,30,20,34,17.70
2015,08,30,20,35,17.70
2015,08,30,20,36,24.20
2015,08,30,20,37,20.90
2015,08,30,20,38,30.60
2015,08,30,20,39,20.90
2015,08,30,20,40,9.60
2015,08,30,20,41,6.40
2015,08,30,20,42,9.60
2015,08,30,20,43,6.40
2015,08,30,20,44,8.10
2015,08,30,20,45,8.10
2015,08,30,20,46,19.30
2015,08,30,20,47,22.50
2015,08,30,20,48,16.10
2015,08,30,20,49,22.50
2015,08,30,20,50,14.50
2015,08,30,20,51,16.10
2015,08,30,20,52,11.30
2015,08,30,20,53,22.50
2015,08,30,20,54,22.50
2015,08,30,20,55,29.00
2015,08,30,20,56,9.60
2015,08,30,20,57,16.10
2015,08,30,20,58,19.30
2015,08,30,20,59,16.10
2015,08,30,21,00,16.10
2015,08,30,21,01,17.70
2015,08,30,21,02,11.30
2015,08,30,21,03,11.30
2015,08,30,21,04,22.50
2015,08,30,21,05,16.10
2015,08,30,21,06,22.50
2015,08,30,21,07,22.50
2015,08,30,21,08,19.30
2015,08,30,21,09,16.10
2015,08,30,21,10,14.50
2015,08,30,21,11,4.80
2015,08,30,21,12,11.30
2015,08,30,21,13,12.90
2015,08,30,21,14,11.30
2015,08,30,21,15,4.80
2015,08,30,21,16,4.80
2015,08,30,21,17,8.10
2015,08,30,21,18,1.60
2015,08,30,21,19,6.40
2015,08,30,21,20,8.10
2015,08,30,21,22,1.60
2015,08,30,21,23,4.80
2015,08,30,21,24,4.80
2015,08,30,21,25,9.60
2015,08,30,21,26,6.40
2015,08,30,21,27,16.10
2015,08,30,21,28,17.70
2015,08,30,21,29,11.30
2015,08,30,21,30,4.80
2015,08,30,21,33,1.60
2015,08,30,21,36,1.60
2015,08,30,21,37,6.40
2015,08,30,21,38,8.10
2015,08,30,21,39,4.80
2015,08,30,21,40,11.30
2015,08,30,21,41,11.30
2015,08,30,21,42,6.40
2015,08,30,21,43,4.80
2015,08,30,21,45,1.60
2015,08,30,21,46,4.80
2015,08,30,21,47,1.60
2015,08,30,21,50,1.60
2015,08,30,21,51,3.20
2015,08,30,21,52,11.30
2015,08,30,21,53,8.10
2015,08,30,21,54,1.60
2015,08,30,21,55,9.60
2015,08,30,21,56,8.10
2015,08,30,21,57,9.60
2015,08,30,21,58,9.60
2015,08,30,21,59,9.60
2015,08,30,22,00,11.30
2015,08,30,22,01,8.10
2015,08,30,22,02,8.10
2015,08,30,22,03,17.70
2015,08,30,22,04,16.10
2015,08,30,22,05,16.10
2015,08,30,22,06,11.30
2015,08,30,22,07,4.80
2015,08,30,22,08,3.20
2015,08,30,22,09,1.60
2015,08,30,22,10,1.60
2015,08,30,22,11,6.40
2015,08,30,22,12,8.10
2015,08,30,22,13,6.40
2015,08,30,22,14,6.40
2015,08,30,22,15,4.80
2015,08,30,22,16,6.40
2015,08,30,22,17,4.80
2015,08,30,22,18,6.40
2015,08,30,22,19,11.30
2015,08,30,22,20,6.40
2015,08,30,22,21,1.60
2015,08,30,22,22,1.60
2015,08,30,22,23,11.30
2015,08,30,22,24,9.60
2015,08,30,22,25,1.60
2015,08,30,22,26,8.10
2015,08,30,22,27,14.50
2015,08,30,22,28,6.40
2015,08,30,22,29,4.80
2015,08,30,22,30,6.40
2015,08,30,22,33,1.60
2015,08,30,22,35,8.10
2015,08,30,22,36,14.50
2015,08,30,22,37,6.40
2015,08,30,22,38,1.60
2015,08,30,22,39,8.10
2015,08,30,22,40,6.40
2015,08,30,22,41,8.10
2015,08,30,22,42,16.10
2015,08,30,22,43,9.60
2015,08,30,22,44,11.30
2015,08,30,22,45,3.20
2015,08,30,22,47,4.80
2015,08,30,22,48,6.40
2015,08,30,22,49,8.10
2015,08,30,22,50,6.40
2015,08,30,22,51,4.80
2015,08,30,22,52,6.40
2015,08,30,22,54,4.80
2015,08,30,22,55,6.40
2015,08,30,22,56,6.40
2015,08,30,22,57,9.60
2015,08,30,22,58,8.10
2015,08,30,22,59,6.40
2015,08,30,23,00,4.80
2015,08,30,23,02,1.60
2015,08,30,23,04,11.30
2015,08,30,23,05,11.30
2015,08,30,23,06,11.30
2015,08,30,23,07,14.50
2015,08,30,23,08,14.50
2015,08,30,23,09,3.20
2015,08,30,23,10,9.60
2015,08,30,23,11,9.60
2015,08,30,23,12,1.60
2015,08,30,23,13,6.40
2015,08,30,23,14,14.50
2015,08,30,23,15,9.60
2015,08,30,23,16,6.40
2015,08,30,23,17,9.60
2015,08,30,23,18,11.30
2015,08,30,23,19,17.70
2015,08,30,23,20,17.70
2015,08,30,23,21,14.50
2015,08,30,23,22,17.70
2015,08,30,23,23,19.30
2015,08,30,23,24,16.10
2015,08,30,23,25,9.60
2015,08,30,23,26,27.40
2015,08,30,23,27,19.30
2015,08,30,23,28,19.30
2015,08,30,23,29,20.90
2015,08,30,23,30,9.60
2015,08,30,23,31,8.10
2015,08,30,23,32,20.90
2015,08,30,23,33,17.70
2015,08,30,23,34,17.70
2015,08,30,23,35,8.10
2015,08,30,23,36,22.50
2015,08,30,23,37,19.30
2015,08,30,23,38,11.30
2015,08,30,23,39,11.30
2015,08,30,23,40,6.40
2015,08,30,23,41,11.30
2015,08,30,23,42,9.60
2015,08,30,23,43,1.60
2015,08,30,23,49,8.10
2015,08,30,23,50,3.20
2015,08,30,23,56,1.60
2015,08,30,23,59,1.60
